TimeAKST,TemperatureF,Dew PointF,Humidity,Sea Level PressureIn,VisibilityMPH,Wind Direction,Wind SpeedMPH,Gust SpeedMPH,PrecipitationIn,Events,Conditions,WindDirDegrees,DateUTC
12:42 AM,-9.9,-14.1,82,29.67,5.0,Calm,Calm,-,N/A,,Overcast,0,2012-11-29 09:42:00
12:53 AM,-11.0,-14.1,86,29.68,5.0,Calm,Calm,-,N/A,,Overcast,0,2012-11-29 09:53:00
1:12 AM,-11.9,-15.0,86,29.66,5.0,Calm,Calm,-,N/A,,Overcast,0,2012-11-29 10:12:00
1:53 AM,-11.9,-15.0,86,29.65,5.0,Calm,Calm,-,N/A,,Overcast,0,2012-11-29 10:53:00
2:14 AM,-11.9,-15.0,86,29.64,5.0,Calm,Calm,-,N/A,,Overcast,0,2012-11-29 11:14:00
3:41 AM,-13.0,-16.1,86,29.61,5.0,Calm,Calm,-,N/A,,Scattered Clouds,0,2012-11-29 12:41:00
3:53 AM,-13.0,-16.1,86,29.62,5.0,Calm,Calm,-,N/A,,Mostly Cloudy,0,2012-11-29 12:53:00
4:11 AM,-13.0,-17.0,82,29.61,5.0,Calm,Calm,-,N/A,,Overcast,0,2012-11-29 13:11:00
4:45 AM,-11.9,-16.1,82,29.60,5.0,Calm,Calm,-,N/A,,Scattered Clouds,0,2012-11-29 13:45:00
4:53 AM,-11.9,-16.1,82,29.61,5.0,Calm,Calm,-,N/A,,Partly Cloudy,0,2012-11-29 13:53:00
5:53 AM,-14.1,-17.0,87,29.59,5.0,Calm,Calm,-,N/A,,Clear,0,2012-11-29 14:53:00
6:53 AM,-14.1,-18.0,82,29.58,5.0,Calm,Calm,-,N/A,,Clear,0,2012-11-29 15:53:00
7:53 AM,-14.1,-18.0,82,29.57,5.0,NE,3.5,-,N/A,,Clear,40,2012-11-29 16:53:00
8:53 AM,-14.1,-18.0,82,29.56,5.0,South,3.5,-,N/A,,Clear,170,2012-11-29 17:53:00
9:53 AM,-14.1,-18.0,82,29.55,4.0,Calm,Calm,-,N/A,,Clear,0,2012-11-29 18:53:00
10:53 AM,-13.0,-18.0,78,29.55,4.0,Calm,Calm,-,N/A,,Haze,0,2012-11-29 19:53:00
11:53 AM,-13.0,-17.0,82,29.54,4.0,Calm,Calm,-,N/A,,Clear,0,2012-11-29 20:53:00
12:53 PM,-11.9,-16.1,82,29.52,4.0,Calm,Calm,-,N/A,,Clear,0,2012-11-29 21:53:00
1:53 PM,-11.9,-16.1,82,29.51,4.0,Calm,Calm,-,N/A,,Clear,0,2012-11-29 22:53:00
2:53 PM,-11.0,-15.0,83,29.49,4.0,Calm,Calm,-,N/A,,Clear,0,2012-11-29 23:53:00
3:53 PM,-11.0,-15.0,83,29.49,3.0,Calm,Calm,-,N/A,,Clear,0,2012-11-30 00:53:00
4:53 PM,-14.1,-17.0,87,29.50,5.0,Calm,Calm,-,N/A,,Clear,0,2012-11-30 01:53:00
5:53 PM,-13.0,-17.0,82,29.52,5.0,Calm,Calm,-,N/A,,Clear,0,2012-11-30 02:53:00
6:53 PM,-13.0,-18.0,78,29.52,5.0,Calm,Calm,-,N/A,,Haze,0,2012-11-30 03:53:00
7:53 PM,-13.0,-17.0,82,29.53,5.0,Calm,Calm,-,N/A,,Clear,0,2012-11-30 04:53:00
8:53 PM,-13.0,-18.0,78,29.55,5.0,Calm,Calm,-,N/A,,Haze,0,2012-11-30 05:53:00
9:53 PM,-14.1,-18.0,82,29.56,5.0,Calm,Calm,-,N/A,,Clear,0,2012-11-30 06:53:00
10:53 PM,-15.0,-18.0,86,29.57,5.0,Calm,Calm,-,N/A,,Clear,0,2012-11-30 07:53:00
11:53 PM,-14.1,-18.0,82,29.58,5.0,Calm,Calm,-,N/A,,Clear,0,2012-11-30 08:53:00